Location: Unspecified
(0.0000°N, 0.0000°E)
Time: 21:54:27
(UTC+00:00)

Vanguard 1 - Pass Details

Date: 09 December 2017
Orbit: 649 x 3834 km, 34.3° (Epoch: 17 January)

Event Time Altitude Azimuth Distance (km) Brightness Sun altitude
Rises 09:20:33 0° 255° (WSW) 7,945 14.4 46.6°
Reaches altitude 10° 09:26:52 10° 263° (W) 6,935 14.2 47.9°
Maximum altitude 09:46:40 36° 322° (NW) 4,356 13.4 51.8°
Drops below altitude 10° 10:00:42 10° 25° (NNE) 4,933 13.6 54.5°
Sets 10:04:21 0° 35° (NE) 5,530 13.9 55.2°
